Weather History for Muskegon, MI

Change the Weather History Date:

Saturday, January 19, 2013

  Actual Average Record
Temperature  
Mean Temperature 38 °F 25 °F  
Max Temperature 44 °F 30 °F 51 °F (1973)
Min Temperature 31 °F 20 °F -7 °F (1971)
Degree Days  
Heating Degree Days 27 40  
Month to date heating degree days 618 747  
Since 1 July heating degree days 2817 3193  
Cooling Degree Days 0 0  
Month to date cooling degree days 0 0  
Year to date cooling degree days 0 0  
Moisture  
Dew Point 32 °F    
Average Humidity 57    
Maximum Humidity 76    
Minimum Humidity 38    
Precipitation  
Precipitation T in 0.06 in 1.08 in (1907)
Month to date precipitation 1.26 1.31  
Year to date precipitation 1.26 1.31  
Snow  
Snow T in 0.90 in 12.30 in (1985)
Month to date snowfall 1.4 17.1  
Since 1 July snowfall 9.6 52.2  
Snow Depth 0.00 in    
Sea Level Pressure  
Sea Level Pressure 29.76 in    
Wind  
Wind Speed 17 mph (SW)    
Max Wind Speed 37 mph    
Max Gust Speed 52 mph    
Visibility 10 miles    
Events      
T = Trace of Precipitation, MM = Missing Value Source: NWS Daily Summary

Daily Weather History Graph

Daily Weather History Graph

Search for Another Location

Airport:

Trip Planner

Search our weather history database for the weather conditions in past years. The results will help you decide how hot, cold, wet, or windy it might be!

Date:

Astronomy

Jan. 19, 2013 Rise Set
Actual Time 8:11 AM EST 5:40 PM EST
Civil Twilight 7:40 AM EST 6:11 PM EST
Nautical Twilight 7:05 AM EST 6:46 PM EST
Astronomical Twilight 6:31 AM EST 7:20 PM EST
Moon 12:08 PM EST (1/19) 1:42 AM EST (1/19)
Length of Visible Light 10h 31m
Length of Day
9h 29m
First Quarter, 57% of the Moon is Illuminated
Jan 19
First Quarter
Jan 26
Full
Feb 3
Last Quarter
Feb 10
New
Feb 17
First Quarter

Hourly Weather History & Observations

Time (EST) Temp. Windchill Dew Point Humidity Pressure Visibility Wind Dir Wind Speed Gust Speed Precip Events Conditions
12:55 AM 41.0 °F 31.9 °F 30.9 °F 67% 29.86 in 10.0 mi SW 19.6 mph 36.8 mph N/A   Clear
1:55 AM 42.1 °F 33.3 °F 32.0 °F 67% 29.86 in 10.0 mi SW 19.6 mph 31.1 mph N/A   Clear
2:55 AM 43.0 °F 33.8 °F 32.0 °F 65% 29.86 in 10.0 mi SW 23.0 mph 27.6 mph N/A   Clear
3:55 AM 43.0 °F 35.1 °F 33.1 °F 68% 29.86 in 10.0 mi SW 17.3 mph 24.2 mph N/A   Clear
4:55 AM 42.1 °F 34.5 °F 33.1 °F 70% 29.85 in 10.0 mi WSW 15.0 mph 24.2 mph N/A   Partly Cloudy
5:55 AM 42.1 °F 35.2 °F 34.0 °F 73% 29.86 in 10.0 mi WSW 12.7 mph 19.6 mph N/A   Overcast
6:55 AM 42.1 °F 37.1 °F 34.0 °F 73% 29.87 in 10.0 mi WSW 8.1 mph - N/A   Overcast
7:55 AM 41.0 °F 34.7 °F 34.0 °F 76% 29.87 in 10.0 mi SSW 10.4 mph - N/A   Overcast
8:55 AM 41.0 °F 33.1 °F 33.1 °F 73% 29.87 in 10.0 mi SSW 15.0 mph - N/A   Overcast
9:55 AM 42.1 °F 33.1 °F 33.1 °F 70% 29.86 in 10.0 mi SW 20.7 mph - N/A   Mostly Cloudy
10:55 AM 42.1 °F 33.9 °F 33.1 °F 70% 29.84 in 10.0 mi SSW 17.3 mph - N/A   Mostly Cloudy
11:55 AM 42.1 °F 33.3 °F 33.1 °F 70% 29.81 in 10.0 mi SSW 19.6 mph 26.5 mph N/A   Overcast
12:55 PM 42.1 °F 32.8 °F 33.1 °F 70% 29.75 in 10.0 mi South 21.9 mph 31.1 mph N/A   Overcast
1:55 PM 42.1 °F 34.5 °F 33.1 °F 70% 29.74 in 10.0 mi SSW 15.0 mph 25.3 mph N/A   Overcast
2:55 PM 42.1 °F 34.2 °F 33.1 °F 70% 29.70 in 10.0 mi SSW 16.1 mph 26.5 mph N/A   Overcast
3:55 PM 42.1 °F 34.5 °F 34.0 °F 73% 29.70 in 10.0 mi SSW 15.0 mph - N/A   Overcast
4:55 PM 43.0 °F 35.7 °F 35.1 °F 74% 29.68 in 10.0 mi SSW 15.0 mph - N/A   Overcast
5:55 PM 43.0 °F 36.0 °F 35.1 °F 74% 29.66 in 10.0 mi South 13.8 mph 21.9 mph N/A   Overcast
6:55 PM 43.0 °F 35.1 °F 35.1 °F 74% 29.65 in 10.0 mi SW 17.3 mph 23.0 mph N/A   Overcast
7:55 PM 44.1 °F 37.1 °F 35.1 °F 71% 29.62 in 10.0 mi WSW 15.0 mph 27.6 mph N/A   Overcast
8:55 PM 44.1 °F 35.7 °F 34.0 °F 68% 29.60 in 10.0 mi WSW 20.7 mph 31.1 mph N/A   Overcast
9:55 PM 43.0 °F 34.2 °F 33.1 °F 68% 29.59 in 10.0 mi WSW 20.7 mph 31.1 mph N/A   Overcast
10:55 PM 41.0 °F 29.8 °F 18.0 °F 40% 29.60 in 10.0 mi West 29.9 mph 44.9 mph 0.00 in   Scattered Clouds
11:55 PM 30.9 °F - 16.0 °F 54% 29.67 in - North - - N/A   Unknown